CW4517 Weather Reports


time (UTC)temp
F
wind
direction
speed
knots
gust
knots
rain 1hr
in
rain 24hr
in
rain mn
in
humidity
%
barometer
mb
20260507183014 56 240 7.8 19.1 0.00 0.00 0.00 51 1009.0
20260507182515 56 259 7.8 19.1 0.00 0.00 0.00 49 1009.0
20260507182015 56 192 7.8 19.1 0.00 0.00 0.00 47 1009.0
20260507181743 56 218 7.0 20.0 0.00 0.00 0.00 49 1009.3
20260507181014 56 243 7.0 20.0 0.00 0.00 0.00 48 1009.3
20260507180515 56 238 7.0 13.9 0.00 0.00 0.00 48 1009.3
20260507180015 56 235 7.8 26.1 0.00 0.00 0.00 48 1009.5
20260507175742 56 246 6.1 26.1 0.00 0.00 0.00 48 1009.5
20260507175018 56 235 5.2 17.4 0.00 0.00 0.00 47 1009.5
20260507174513 56 229 6.1 14.8 0.00 0.00 0.00 46 1009.5
20260507173959 56 152 6.1 14.8 0.00 0.00 0.00 46 1009.5
20260507173447 56 228 5.2 14.8 0.00 0.00 0.00 45 1009.7
20260507172935 57 247 5.2 13.9 0.00 0.00 0.00 45 1009.7
20260507172423 57 263 5.2 13.9 0.00 0.00 0.00 44 1009.7
20260507171917 57 240 4.3 7.8 0.00 0.00 0.00 46 1010.1
20260507171411 56 290 4.3 10.4 0.00 0.00 0.00 45 1010.1
20260507170905 56 287 5.2 12.2 0.00 0.00 0.00 44 1010.1
20260507170626 57 253 5.2 12.2 0.00 0.00 0.00 46 1010.2
20260507170117 56 240 5.2 10.4 0.00 0.00 0.00 46 1010.2
20260507165610 56 207 5.2 11.3 0.00 0.00 0.00 46 1010.2
20260507164841 56 250 4.3 11.3 0.00 0.00 0.00 47 1010.3
20260507164335 56 240 4.3 8.7 0.00 0.00 0.00 45 1010.3
20260507163829 55 227 4.3 10.4 0.00 0.00 0.00 46 1010.3
20260507163323 55 298 5.2 10.4 0.00 0.00 0.00 47 1010.8
20260507162812 55 234 6.1 10.4 0.00 0.00 0.00 46 1010.8
20260507162311 55 239 5.2 10.4 0.00 0.00 0.00 48 1010.8
20260507161804 55 241 4.3 10.4 0.00 0.00 0.00 49 1011.0
20260507161259 55 308 4.3 8.7 0.00 0.00 0.00 49 1011.0
20260507160753 55 222 4.3 13.0 0.00 0.00 0.00 48 1011.0
20260507160243 54 212 3.5 11.3 0.00 0.00 0.00 50 1011.1
20260507155741 54 190 3.5 10.4 0.00 0.00 0.00 51 1011.1
20260507155235 54 224 5.2 11.3 0.00 0.00 0.00 51 1011.1
20260507154729 54 184 5.2 11.3 0.00 0.00 0.00 49 1011.3
20260507154316 53 196 4.3 11.3 0.00 0.00 0.00 49 1011.3
20260507153211 53 234 3.5 9.6 0.00 0.00 0.00 49 1011.4
20260507152700 53 244 4.3 9.6 0.00 0.00 0.00 50 1011.4
20260507152158 52 225 4.3 9.6 0.00 0.00 0.00 50 1011.4
20260507151653 52 247 4.3 7.8 0.00 0.00 0.00 50 1011.6
20260507151147 52 180 4.3 8.7 0.00 0.00 0.00 51 1011.6
20260507150640 51 240 4.3 8.7 0.00 0.00 0.00 51 1011.6
20260507150130 51 261 4.3 8.7 0.00 0.00 0.00 50 1011.7
20260507145628 51 241 4.3 8.7 0.00 0.00 0.00 53 1011.7
20260507145342 51 185 4.3 8.7 0.00 0.00 0.00 52 1011.7
20260507144616 50 263 4.3 8.7 0.00 0.00 0.00 54 1011.9
20260507144111 50 212 3.5 7.8 0.00 0.00 0.00 52 1011.9
20260507143605 50 208 3.5 7.0 0.00 0.00 0.00 56 1011.9
20260507143059 49 200 3.5 7.0 0.00 0.00 0.00 55 1011.8
20260507142549 49 236 2.6 6.1 0.00 0.00 0.00 55 1011.8
20260507142049 49 213 2.6 6.1 0.00 0.00 0.00 57 1011.8
20260507141537 49 204 2.6 6.1 0.00 0.00 0.00 56 1012.0
20260507141030 49 192 2.6 6.1 0.00 0.00 0.00 56 1012.0
20260507140524 48 236 3.5 6.1 0.00 0.00 0.00 57 1012.0
20260507140239 48 196 3.5 7.0 0.00 0.00 0.00 59 1012.2
20260507135508 48 228 2.6 7.0 0.00 0.00 0.00 59 1012.2
20260507134959 47 184 2.6 6.1 0.00 0.00 0.00 59 1012.2
20260507134459 47 244 3.5 7.8 0.00 0.00 0.00 58 1012.3
20260507134000 47 230 3.5 7.8 0.00 0.00 0.00 60 1012.3
20260507133459 47 223 2.6 6.1 0.00 0.00 0.00 60 1012.3
20260507132959 46 269 3.5 6.1 0.00 0.00 0.00 61 1012.3
20260507132500 46 251 3.5 7.0 0.00 0.00 0.00 61 1012.3
20260507132000 45 254 3.5 7.0 0.00 0.00 0.00 61 1012.3
20260507131500 45 206 2.6 6.1 0.00 0.00 0.00 63 1012.2
20260507131044 44 248 2.6 5.2 0.00 0.00 0.00 65 1012.2
20260507125942 43 209 1.7 5.2 0.00 0.00 0.00 65 1011.9
20260507125429 43 219 1.7 3.5 0.00 0.00 0.00 67 1011.9
20260507124923 42 236 1.7 3.5 0.00 0.00 0.00 67 1011.9
20260507124418 42 237 1.7 3.5 0.00 0.00 0.00 69 1011.9
20260507123906 41 225 1.7 3.5 0.00 0.00 0.00 70 1011.9
20260507123406 41 223 1.7 3.5 0.00 0.00 0.00 70 1011.9
20260507122901 41 217 1.7 3.5 0.00 0.00 0.00 71 1011.9
20260507122354 40 221 0.9 3.5 0.00 0.00 0.00 70 1011.9
20260507121848 40 125 0.0 1.7 0.00 0.00 0.00 72 1011.9
20260507121342 39 125 0.9 1.7 0.00 0.00 0.00 72 1011.9
20260507120835 39 125 0.9 1.7 0.00 0.00 0.00 72 1011.9
20260507120325 39 125 0.9 1.7 0.00 0.00 0.00 73 1011.9
20260507115814 38 125 0.0 1.7 0.00 0.00 0.00 73 1011.9
20260507115313 38 122 0.0 1.7 0.00 0.00 0.00 74 1011.9
20260507114808 38 122 0.0 0.0 0.00 0.00 0.00 74 1011.8
20260507114524 38 122 0.0 0.0 0.00 0.00 0.00 74 1011.8
20260507113756 37 235 0.0 0.0 0.00 0.00 0.00 75 1011.8
20260507113245 37 235 0.0 1.7 0.00 0.00 0.00 76 1011.7
20260507112744 37 235 0.0 1.7 0.00 0.00 0.00 76 1011.7
20260507112458 37 235 0.9 1.7 0.00 0.00 0.00 76 1011.7
20260507111732 36 235 0.9 1.7 0.00 0.00 0.00 77 1011.7
20260507111225 36 235 0.9 2.6 0.00 0.00 0.00 77 1011.7
20260507110714 36 235 1.7 2.6 0.00 0.00 0.00 77 1011.7
20260507110213 36 235 1.7 2.6 0.00 0.00 0.00 77 1011.6
20260507105708 36 235 0.9 2.6 0.00 0.00 0.00 77 1011.6
20260507105209 36 235 0.9 1.7 0.00 0.00 0.00 77 1011.6
20260507104709 36 235 0.9 2.6 0.00 0.00 0.00 77 1011.8
20260507104211 36 235 1.7 2.6 0.00 0.00 0.00 77 1011.8
20260507103926 36 235 1.7 2.6 0.00 0.00 0.00 77 1011.8
20260507103207 36 235 1.7 2.6 0.00 0.00 0.00 77 1011.8
20260507102706 36 235 1.7 2.6 0.00 0.00 0.00 77 1011.8
20260507102207 36 235 1.7 2.6 0.00 0.00 0.00 77 1011.8
20260507101706 36 235 1.7 2.6 0.00 0.00 0.00 77 1011.8
20260507101207 36 238 0.9 2.6 0.00 0.00 0.00 77 1011.8
20260507100707 36 238 0.9 1.7 0.00 0.00 0.00 77 1011.8
20260507100207 37 238 0.9 1.7 0.00 0.00 0.00 76 1011.8
20260507095707 37 238 0.9 1.7 0.00 0.00 0.00 76 1011.8
20260507095428 37 238 0.9 1.7 0.00 0.00 0.00 75 1011.8
20260507094705 37 238 0.0 1.7 0.00 0.00 0.00 75 1011.9
20260507094205 37 238 0.0 1.7 0.00 0.00 0.00 75 1011.9
20260507094142 37 238 0.9 1.7 0.00 0.00 0.00 75 1011.9
20260507093158 37 238 0.9 1.7 0.00 0.00 0.00 74 1011.9
20260507092655 38 238 0.9 3.5 0.00 0.00 0.00 74 1011.9
20260507092154 38 238 0.9 3.5 0.00 0.00 0.00 74 1011.9
20260507091657 38 279 0.9 2.6 0.00 0.00 0.00 74 1011.9
20260507091415 38 279 0.9 1.7 0.00 0.00 0.00 74 1011.9
20260507090654 38 279 0.9 1.7 0.00 0.00 0.00 74 1011.9
20260507090155 38 279 0.0 0.9 0.00 0.00 0.00 74 1011.9
20260507085915 38 279 0.0 0.9 0.00 0.00 0.00 74 1011.9
20260507085153 38 279 0.0 0.0 0.00 0.00 0.00 73 1011.9
20260507084653 38 279 0.0 0.9 0.00 0.00 0.00 73 1011.9
20260507084150 38 279 0.0 1.7 0.00 0.00 0.00 73 1011.9
20260507083859 38 279 0.9 2.6 0.00 0.00 0.00 73 1011.9
20260507083140 38 279 0.9 2.6 0.00 0.00 0.00 73 1011.9
20260507082634 38 279 0.9 1.7 0.00 0.00 0.00 73 1011.9
20260507082123 38 279 0.0 1.7 0.00 0.00 0.00 73 1011.9
20260507081620 38 279 0.0 1.7 0.00 0.00 0.00 72 1011.9
20260507081115 38 279 0.0 0.0 0.00 0.00 0.00 72 1011.9
20260507080834 39 279 0.0 0.0 0.00 0.00 0.00 72 1011.9
20260507080317 39 279 0.0 0.0 0.00 0.00 0.00 72 1011.9
20260507075558 39 279 0.0 0.0 0.00 0.00 0.00 72 1011.9
20260507075313 39 279 0.0 0.0 0.00 0.00 0.00 72 1011.9
20260507075019 39 279 0.0 0.0 0.00 0.00 0.00 71 1011.8
20260507074040 39 279 0.0 0.9 0.00 0.00 0.00 71 1011.8
20260507073532 39 279 0.0 0.9 0.00 0.00 0.00 71 1011.8
20260507073026 39 279 0.0 0.9 0.00 0.00 0.00 71 1011.9
20260507072521 39 279 0.0 0.9 0.00 0.00 0.00 71 1011.9
20260507072232 39 279 0.0 1.7 0.00 0.00 0.00 71 1011.9
20260507071509 39 279 0.9 1.7 0.00 0.00 0.00 71 1011.9
20260507071003 39 279 0.9 1.7 0.00 0.00 0.00 71 1011.9
20260507070456 39 279 0.9 1.7 0.00 0.00 0.00 71 1011.9
20260507065951 39 279 0.9 1.7 0.00 0.00 0.00 71 1011.9
20260507065441 39 279 0.0 1.7 0.00 0.00 0.00 71 1011.9
20260507064939 39 279 0.0 1.7 0.00 0.00 0.00 71 1012.0
20260507064434 39 279 0.0 1.7 0.00 0.00 0.00 70 1012.0
20260507063926 39 279 0.0 1.7 0.00 0.00 0.00 71 1012.0
20260507063422 39 279 0.0 0.9 0.00 0.00 0.00 71 1012.1
20260507062909 39 279 0.0 0.9 0.00 0.00 0.00 70 1012.1
20260507062409 39 279 0.0 0.9 0.00 0.00 0.00 70 1012.1
20260507061907 40 279 0.0 0.0 0.00 0.00 0.00 70 1012.1
20260507061405 40 279 0.0 0.0 0.00 0.00 0.00 69 1012.1
20260507060904 40 279 0.0 0.0 0.00 0.00 0.00 68 1012.1
20260507060402 40 279 0.0 0.0 0.00 0.00 0.00 68 1012.2
20260507060126 40 279 0.0 0.0 0.00 0.00 0.00 68 1012.2
20260507055359 40 279 0.0 0.0 0.00 0.00 0.00 67 1012.2
20260507054857 40 279 0.0 0.0 0.00 0.00 0.00 66 1012.2
20260507054354 40 279 0.0 0.0 0.00 0.00 0.00 66 1012.2
20260507054118 41 279 0.0 0.9 0.00 0.00 0.00 66 1012.2
20260507053350 41 279 0.0 0.9 0.00 0.00 0.00 66 1012.3
20260507053111 41 279 0.0 0.9 0.00 0.00 0.00 66 1012.3
20260507052351 41 279 0.0 0.9 0.00 0.00 0.00 65 1012.3
20260507051849 41 279 0.0 1.7 0.00 0.00 0.00 65 1012.3
20260507051352 41 279 0.0 1.7 0.00 0.00 0.00 66 1012.3
20260507050854 41 281 0.0 0.9 0.00 0.00 0.00 65 1012.3
20260507050350 41 281 0.0 1.7 0.00 0.00 0.00 64 1012.3
20260507050330 41 281 0.0 1.7 0.00 0.00 0.00 64 1012.3
20260507045339 41 281 0.0 1.7 0.00 0.00 0.00 65 1012.3
20260507044833 42 281 0.0 1.7 0.00 0.00 0.00 64 1012.3
20260507044321 42 281 0.0 0.0 0.00 0.00 0.00 64 1012.3
20260507043822 42 281 0.0 0.0 0.00 0.00 0.00 64 1012.3
20260507043316 42 281 0.0 1.7 0.00 0.00 0.00 64 1012.1
20260507042808 42 281 0.0 1.7 0.00 0.00 0.00 63 1012.1
20260507042306 42 281 0.0 0.9 0.00 0.00 0.00 62 1012.1
20260507041754 42 281 0.0 1.7 0.00 0.00 0.00 62 1012.2
20260507041247 42 281 0.0 1.7 0.00 0.00 0.00 62 1012.2
20260507040736 43 281 0.0 0.0 0.00 0.00 0.00 62 1012.2
20260507040222 43 281 0.0 0.0 0.00 0.00 0.00 61 1012.2
20260507035944 43 281 0.0 0.0 0.00 0.00 0.00 61 1012.2
20260507035222 43 281 0.0 0.0 0.00 0.00 0.00 61 1012.2
20260507034723 43 281 0.0 0.0 0.00 0.00 0.00 60 1012.3
20260507034222 44 281 0.0 0.0 0.00 0.00 0.00 60 1012.3
20260507033722 44 281 0.0 0.0 0.00 0.00 0.00 59 1012.3
20260507033224 44 281 0.0 0.0 0.00 0.00 0.00 59 1012.3
20260507032725 44 281 0.0 0.0 0.00 0.00 0.00 58 1012.3
20260507032221 45 281 0.0 1.7 0.00 0.00 0.00 58 1012.3
20260507031720 45 281 0.0 1.7 0.00 0.00 0.00 57 1012.2
20260507031215 45 281 0.0 1.7 0.00 0.00 0.00 55 1012.2
20260507030708 45 281 0.0 1.7 0.00 0.00 0.00 55 1012.2
20260507030202 46 281 0.0 2.6 0.00 0.00 0.00 55 1012.1
20260507025653 46 281 0.9 2.6 0.00 0.00 0.00 54 1012.1
20260507025145 46 267 0.9 2.6 0.00 0.00 0.00 53 1012.1
20260507024645 46 263 0.9 2.6 0.00 0.00 0.00 53 1012.0
20260507024139 46 289 0.9 2.6 0.00 0.00 0.00 53 1012.0
20260507023631 47 288 1.7 4.3 0.00 0.00 0.00 53 1012.0
20260507023126 47 309 1.7 4.3 0.00 0.00 0.00 52 1011.9
20260507023109 47 281 1.7 4.3 0.00 0.00 0.00 51 1011.9
20260507022109 47 292 1.7 5.2 0.00 0.00 0.00 52 1011.9
20260507021831 47 317 1.7 5.2 0.00 0.00 0.00 52 1011.6
20260507021103 47 36 1.7 4.3 0.00 0.00 0.00 52 1011.6
20260507020558 48 277 1.7 4.3 0.00 0.00 0.00 51 1011.6
20260507020046 48 325 1.7 5.2 0.00 0.00 0.00 51 1011.4
20260507015541 48 263 1.7 5.2 0.00 0.00 0.00 51 1011.4
20260507015040 48 325 1.7 5.2 0.00 0.00 0.00 51 1011.4
20260507014532 48 286 1.7 5.2 0.00 0.00 0.00 49 1011.2
20260507014025 49 293 2.6 5.2 0.00 0.00 0.00 50 1011.2
20260507013522 49 343 2.6 6.1 0.00 0.00 0.00 49 1011.2
20260507013010 49 309 3.5 7.8 0.00 0.00 0.00 49 1011.2
20260507012509 49 292 3.5 8.7 0.00 0.00 0.00 48 1011.2
20260507011958 49 246 3.5 10.4 0.00 0.00 0.00 49 1011.2
20260507011455 50 272 3.5 10.4 0.00 0.00 0.00 49 1011.1
20260507010946 50 233 3.5 8.7 0.00 0.00 0.00 49 1011.1
20260507010444 50 291 2.6 8.7 0.00 0.00 0.00 48 1010.9
20260507005940 50 5 2.6 6.1 0.00 0.00 0.00 48 1010.9
20260507005428 50 324 1.7 6.1 0.00 0.00 0.00 48 1010.9
20260507004926 51 30 2.6 8.7 0.00 0.00 0.00 48 1010.9
20260507004637 51 341 4.3 11.3 0.00 0.00 0.00 47 1010.9
20260507003913 51 286 5.2 12.2 0.00 0.00 0.00 46 1010.9
20260507003408 52 342 4.3 12.2 0.00 0.00 0.00 45 1010.8
20260507002859 52 286 4.3 12.2 0.00 0.00 0.00 46 1010.8
20260507002356 52 217 5.2 13.9 0.00 0.00 0.00 45 1010.8
20260507002121 52 285 6.1 13.9 0.00 0.00 0.00 45 1010.5
20260507001601 53 327 5.2 12.2 0.00 0.00 0.00 45 1010.5
20260507000838 53 324 4.3 13.0 0.00 0.00 0.00 45 1010.5
20260507000330 53 309 4.3 13.0 0.00 0.00 0.00 45 1010.3
20260506235819 53 295 4.3 12.2 0.00 0.00 0.00 44 1010.3
20260506235310 53 314 5.2 12.2 0.00 0.00 0.00 45 1010.3
20260506234808 53 250 6.1 13.0 0.00 0.00 0.00 44 1010.2
20260506234309 53 241 5.2 13.0 0.00 0.00 0.00 44 1010.2
20260506233809 53 267 5.2 18.2 0.00 0.00 0.00 45 1010.2
20260506233529 53 250 5.2 18.2 0.00 0.00 0.00 43 1010.2
20260506232809 54 300 4.3 11.3 0.00 0.00 0.00 43 1010.2
20260506232308 54 292 4.3 10.4 0.00 0.00 0.00 43 1010.2
20260506231811 54 315 4.3 10.4 0.00 0.00 0.00 43 1010.1
20260506231313 54 308 5.2 12.2 0.00 0.00 0.00 43 1010.1
20260506230809 54 215 5.2 12.2 0.00 0.00 0.00 43 1010.1
20260506230258 54 269 3.5 10.4 0.00 0.00 0.00 42 1009.8
20260506225755 55 225 4.3 11.3 0.00 0.00 0.00 42 1009.8
20260506225249 55 292 4.3 11.3 0.00 0.00 0.00 42 1009.8
20260506224736 55 325 4.3 11.3 0.00 0.00 0.00 42 1009.9
20260506224235 55 214 4.3 10.4 0.00 0.00 0.00 42 1009.9
20260506223731 55 274 5.2 10.4 0.00 0.00 0.00 43 1009.9
20260506223225 55 246 6.1 13.9 0.00 0.00 0.00 42 1009.8
20260506222718 55 284 5.2 12.2 0.00 0.00 0.00 41 1009.8
20260506222212 56 250 5.2 12.2 0.00 0.00 0.00 43 1009.8
20260506221707 55 283 5.2 12.2 0.00 0.00 0.00 42 1009.8
20260506221429 55 298 4.3 10.4 0.00 0.00 0.00 42 1009.8
20260506220654 55 49 4.3 13.0 0.00 0.00 0.00 41 1009.8
20260506220149 55 233 5.2 13.0 0.00 0.00 0.00 41 1009.8
20260506215642 56 263 6.1 11.3 0.00 0.00 0.00 41 1009.8
20260506215136 56 267 7.0 13.0 0.00 0.00 0.00 41 1009.8
20260506214847 56 304 6.1 13.0 0.00 0.00 0.00 41 1009.7
20260506214123 56 228 5.2 11.3 0.00 0.00 0.00 41 1009.7
20260506213617 56 320 6.1 21.7 0.00 0.00 0.00 42 1009.7
20260506213111 56 269 7.8 21.7 0.00 0.00 0.00 40 1009.7
20260506212605 56 246 7.0 14.8 0.00 0.00 0.00 40 1009.7
20260506212059 56 247 7.0 13.9 0.00 0.00 0.00 39 1009.7
20260506211553 56 284 6.1 13.0 0.00 0.00 0.00 41 1009.7
20260506211043 57 290 6.1 14.8 0.00 0.00 0.00 40 1009.7
20260506210541 56 263 6.1 14.8 0.00 0.00 0.00 41 1009.7
20260506210040 56 267 6.1 13.9 0.00 0.00 0.00 41 1009.8
20260506205540 56 271 6.1 13.9 0.00 0.00 0.00 41 1009.8
20260506205040 56 237 5.2 13.0 0.00 0.00 0.00 40 1009.8
20260506204540 56 291 6.1 13.0 0.00 0.00 0.00 43 1009.8
20260506204310 56 289 6.1 12.2 0.00 0.00 0.00 42 1009.8
20260506203540 56 263 5.2 12.2 0.00 0.00 0.00 40 1009.8
20260506203041 56 238 5.2 12.2 0.00 0.00 0.00 41 1009.9
20260506202801 56 248 4.3 11.3 0.00 0.00 0.00 42 1009.9
20260506202043 55 221 4.3 12.2 0.00 0.00 0.00 44 1009.9
20260506201544 55 278 5.2 13.0 0.00 0.00 0.00 42 1010.2
20260506201040 55 244 5.2 13.0 0.00 0.00 0.00 44 1010.2
20260506200540 56 271 5.2 12.2 0.00 0.00 0.00 45 1010.2
20260506200040 55 259 5.2 12.2 0.00 0.00 0.00 44 1010.3
20260506195539 55 286 5.2 14.8 0.00 0.00 0.00 44 1010.3
20260506195039 55 219 5.2 14.8 0.00 0.00 0.00 44 1010.3
20260506194802 55 160 5.2 11.3 0.00 0.00 0.00 44 1010.3
20260506194022 55 311 5.2 11.3 0.00 0.00 0.00 45 1010.3
20260506193511 55 254 6.1 12.2 0.00 0.00 0.00 44 1010.3
20260506193012 55 227 6.1 16.5 0.00 0.00 0.00 45 1010.3
20260506192512 55 252 5.2 16.5 0.00 0.00 0.00 45 1010.3
20260506192012 54 264 4.3 9.6 0.00 0.00 0.00 48 1010.3
20260506191512 54 254 5.2 9.6 0.00 0.00 0.00 48 1010.5
20260506191011 54 217 5.2 12.2 0.00 0.00 0.00 49 1010.5
20260506190732 54 265 4.3 12.2 0.00 0.00 0.00 47 1010.5
20260506190016 54 315 5.2 12.2 0.00 0.00 0.00 48 1010.5
20260506185511 54 246 5.2 12.2 0.00 0.00 0.00 46 1010.5
20260506185500 54 235 3.5 8.7 0.00 0.00 0.00 48 1010.5
20260506184504 54 287 4.3 11.3 0.00 0.00 0.00 48 1010.3
20260506183958 54 227 5.2 11.3 0.00 0.00 0.00 46 1010.3
20260506183452 53 226 6.1 11.3 0.00 0.00 0.00 46 1010.3